World > North America > United States > Pennsylvania > Branchton

Hourly Branchton, PA Regional Weather

Feedback E-mail the Weather

Quick WX

Branchton, PA Weather Maps

°F °C°F °C
Branchton Weather Map
UTC Time: 8/9/2022, 22:18
Your Time:

Branchton, PA Regional Weather

Expires:202208092300;;756751
ASUS41 KCTP 092210
RWRCTP

REGIONAL WEATHER ROUNDUP
NATIONAL WEATHER SERVICE STATE COLLEGE PA
600 PM EDT TUE AUG 09 2022

Note: "fair" indicates few or no clouds below 12,000 feet with no 
significant weather and/or obstructions to visibility.

* = STATION THAT DOES NOT REPORT PRECIPITATION /E.G. RAIN...SNOW...ETC/
    THUNDER OR FOG.


PAZ002>004-007>009-013>016-020>023-029>032-092300-
WESTERN PENNSYLVANIA
  
CITY           SKY/WX    TMP DP  RH WIND       PRES   REMARKS
ERIE           SUNNY     74  58  57 W5        30.06S                  
MEADVILLE      PTSUNNY   71  59  65 N6        30.07S                  
FRANKLIN       CLOUDY    73  65  75 NW6       30.07S                  
NEW CASTLE     CLOUDY    72  69  90 SW3         N/A                   
BEAVER COUNTY  CLOUDY    74  65  71 N5        30.06F                  
BUTLER         CLOUDY   N/A N/A N/A N5        30.06F                  
PITTSBURGH INT PTSUNNY   76  66  71 N8        30.04F                  
PITTSBURGH     PTSUNNY   77  69  76 VRB6      30.03F                  
INDIANA*       CLOUDY    75  70  83 CALM      30.09S                  
LATROBE        PTSUNNY   79  72  78 N9        30.04S                  
WASHINGTON CO* CLOUDY    77  71  82 N6        30.06S                  
$$


SKY/WX - Weather  TMP - Temperature  DP - Dew Point  RH - Humidity
WIND - Wind Direction/Speed PRES - Barometric Pressure VSB - Visibility
WCI - Wind Chill Index E13G22 Wind - East Wind 13 mph/Gusts of 22 mph

Trending Headlines

Branchton Radar Loop



Branchton Quick Facts


National Two Day Weather Forecast


E-mail the Branchton Weather Forecast

Voice your opinion or tell us about page issues...